Regional Weather Roundup
Issued by NWS

Home | Current Version | Previous Version | Graphics & Text | Print | Product List | Glossary On
Versions: 1 2 3 4 5 6 7 8 9 10 11 12 13 14 15 16 17 18 19 20 21 22 23 24 25 26 27 28 29 30 31 32 33 34 35 36 37 38 39 40 41 42 43 44 45 46 47 48 49 50
000
ASUS43 KLMK 161702
RWRKY
KENTUCKY REGIONAL WEATHER ROUNDUP
NATIONAL WEATHER SERVICE LOUISVILLE KY
1200 PM EST SAT DEC 16 2017

NOTE "FAIR" INDICATES FEW OR NO CLOUDS BELOW 12,000 FEET
WITH NO SIGNIFICANT WEATHER AND/OR OBSTRUCTIONS TO VISIBILITY.

KYZ001>023-026-027-061>063-070>075-161800-
WESTERN AND SOUTH CENTRAL KENTUCKY

CITY           SKY/WX    TMP DP  RH WIND       PRES   REMARKS
PADUCAH        SUNNY     47  30  51 SW16G24   30.16F
HENDERSON      SUNNY     46  32  58 SW16      30.13F
OWENSBORO      SUNNY     46  31  55 SW16      30.15F
HOPKINSVILLE   SUNNY     47  28  49 SW16      30.19F
BOWLING GREEN  SUNNY     47  31  53 SW14G23   30.22S
GLASGOW        NOT AVBL
$$

KYZ024-025-028>034-038-045-046-053-161800-
NORTH CENTRAL KENTUCKY

CITY           SKY/WX    TMP DP  RH WIND       PRES   REMARKS
LOUISVILLE/SDF MOSUNNY   47  29  49 SW12      30.13F
LOUISVILLE/LOU SUNNY     45  30  55 SW15G23   30.14F
FORT KNOX      SUNNY     47  28  48 SW18G25   30.12F
$$

KYZ035>037-039>044-047>052-055>060-089>105-161800-
NORTHEAST KENTUCKY

CITY           SKY/WX    TMP DP  RH WIND       PRES   REMARKS
LEXINGTON      SUNNY     45  29  53 SW17G26   30.14F
COVINGTON      SUNNY     44  29  55 SW18      30.07F
FRANKFORT      SUNNY     47  28  47 SW17G26   30.12F
$$

KYZ054-064>069-076>088-106>120-161800-
SOUTHEAST KENTUCKY

CITY           SKY/WX    TMP DP  RH WIND       PRES   REMARKS
JACKSON        SUNNY     47  27  45 VRB5      30.17S
LONDON         SUNNY     45  26  47 SW9       30.20F
SOMERSET       NOT AVBL
MIDDLESBORO    SUNNY     42  26  55 S12       30.24F
MONTICELLO     SUNNY     46  29  51 SW22G28   30.24F
$$





USA.gov is the U.S. government's official web portal to all federal, state and local government web resources and services.